Simultaneous Nadir Overpasses (SNOs) Predictions

Prediction of SNOs between AQUA and NOAA-19 Satellite Orbit:

Table of predicted SNOs for the next 14.0 days since TLE Epoch: 9/22/2017
Index Date (AQUA) Time (AQUA) Lat,Lon (AQUA) SZA (AQUA ) Date (NOAA-19) Time (NOAA-19) Lat,Lon (NOAA-19) SZA (NOAA-19 ) Distance(km) Time Diff (sec)
1 09/24/2017 03:48:49 -80.94, -97.55 96.62 09/24/2017 03:48:45 -80.93, -97.59 96.62 1.03 4
2 09/26/2017 09:22:35 80.95, -1.10 84.25 09/26/2017 09:22:25 80.93, -1.00 84.23 2.39 10
3 09/28/2017 14:56:19 -80.94, 95.58 94.93 09/28/2017 14:56:16 -80.93, 95.47 94.92 2.13 3
4 09/30/2017 20:30:04 80.93,-167.73 85.90 09/30/2017 20:29:56 80.93,-167.92 85.92 3.27 8
5 10/03/2017 02:03:49 -80.95, -71.41 93.23 10/03/2017 02:03:46 -80.93, -71.26 93.25 3.10 3




NCC Satellite Simultaneous Nadir Overpasses (SNOs) Prediction Service
